Find Starlink 30530

NORAD ID: 58005 Int'l Des: 2023-153 Owner: SPXS Country: US Constellation: starlink operational
LEOCIRCULAR

Current View

Loading 3D Globe...

About Starlink 30530

Starlink 30530 (NORAD 58005) is a starlink constellation satellite (v2 mini) launched Oct 5, 2023 by SPXS of US. It operates in LEO, CIRCULAR orbit with a mass of 730.00 kg.

About Starlink 30530

Description loading...

Upcoming Passes

Passes for default location (London). Set your location on the main map for personalized predictions.

Altitude History

Loading altitude history...

Two-Line Element Set

1 58005U 23153Q 26167.85144277 -.00001979 00000-0 -62470-4 0 9993
2 58005 43.0052 226.8866 0000455 133.1298 226.9592 15.27556200150063
Epoch: Jun 16, 2026 • Age: 32 hours

Current Status

Altitude 483.2 km
Velocity 7.63 km/s
Sub-Earth Point 28.42°N, 31.5°E
Launch Date Oct 5, 2023
Age 2.6 years
Type internet

Technical Details

Classification Payload
Mass 730.00 kg
Dry Mass 700.00 kg
Total Mass 730.00 kg
Length 0.30 m
Diameter 4.10 m
Span 29.00 m
Shape Box + pan
Manufacturer SPXS
Bus Type Starlink V2M
Phase Status In Orbit
Owner/State SPXS/US

Most Searched